| time (UTC) | temp C | wind direction | speed KPH | gust KPH | rain 1hr cm | rain 24hr cm | rain mn cm | humidity % | barometer mb |
| 20260504050428 | 6 | 161 | 1.6 | 8.0 | 0.00 | 0.00 | 0.00 | 85 | 1014.9 |
| 20260504045931 | 6 | 162 | 0.0 | 0.0 | 0.00 | 0.00 | 0.00 | 85 | 1015.0 |
| 20260504045422 | 6 | 162 | 0.0 | 0.0 | 0.00 | 0.00 | 0.00 | 86 | 1014.9 |
| 20260504044932 | 6 | 162 | 0.0 | 0.0 | 0.00 | 0.00 | 0.00 | 84 | 1014.9 |
| 20260504044423 | 5 | 162 | 0.0 | 0.0 | 0.00 | 0.00 | 0.00 | 84 | 1014.9 |
| 20260504043936 | 5 | 162 | 0.0 | 0.0 | 0.00 | 0.00 | 0.00 | 85 | 1014.9 |
| 20260504043429 | 5 | 162 | 0.0 | 0.0 | 0.00 | 0.00 | 0.00 | 86 | 1014.9 |
| 20260504042918 | 5 | 162 | 0.0 | 0.0 | 0.00 | 0.00 | 0.00 | 85 | 1014.8 |
| 20260504042429 | 5 | 162 | 0.0 | 0.0 | 0.00 | 0.00 | 0.00 | 85 | 1014.9 |
| 20260504041923 | 5 | 162 | 0.0 | 0.0 | 0.00 | 0.00 | 0.00 | 86 | 1014.9 |
| 20260504041417 | 5 | 162 | 0.0 | 0.0 | 0.00 | 0.00 | 0.00 | 87 | 1014.9 |
| 20260504040929 | 5 | 162 | 0.0 | 0.0 | 0.00 | 0.00 | 0.00 | 87 | 1015.0 |
| 20260504040421 | 4 | 162 | 0.0 | 0.0 | 0.00 | 0.00 | 0.00 | 88 | 1015.0 |
| 20260504035921 | 4 | 162 | 0.0 | 0.0 | 0.00 | 0.00 | 0.00 | 88 | 1015.0 |
| 20260504035443 | 4 | 162 | 0.0 | 0.0 | 0.00 | 0.00 | 0.00 | 87 | 1015.0 |
| 20260504034931 | 4 | 162 | 0.0 | 0.0 | 0.00 | 0.00 | 0.00 | 86 | 1015.0 |
| 20260504034424 | 4 | 162 | 0.0 | 0.0 | 0.00 | 0.00 | 0.00 | 86 | 1014.9 |
| 20260504033954 | 4 | 162 | 0.0 | 1.6 | 0.00 | 0.00 | 0.00 | 86 | 1014.9 |
| 20260504033424 | 5 | 162 | 0.0 | 4.8 | 0.00 | 0.00 | 0.00 | 86 | 1014.9 |
| 20260504032934 | 5 | 162 | 1.6 | 4.8 | 0.00 | 0.00 | 0.00 | 85 | 1014.9 |
| 20260504032423 | 5 | 162 | 0.0 | 1.6 | 0.00 | 0.00 | 0.00 | 86 | 1014.9 |
| 20260504031956 | 5 | 162 | 0.0 | 1.6 | 0.00 | 0.00 | 0.00 | 86 | 1014.9 |
| 20260504031420 | 5 | 162 | 0.0 | 1.6 | 0.00 | 0.00 | 0.00 | 86 | 1014.9 |
| 20260504030930 | 5 | 162 | 0.0 | 1.6 | 0.00 | 0.00 | 0.00 | 87 | 1015.0 |
| 20260504030419 | 4 | 162 | 0.0 | 3.2 | 0.00 | 0.00 | 0.00 | 86 | 1015.0 |
| 20260504025923 | 4 | 162 | 0.0 | 3.2 | 0.00 | 0.00 | 0.00 | 87 | 1015.0 |
| 20260504025435 | 4 | 162 | 0.0 | 1.6 | 0.00 | 0.00 | 0.00 | 86 | 1015.1 |
| 20260504024925 | 4 | 162 | 0.0 | 1.6 | 0.00 | 0.00 | 0.00 | 86 | 1015.1 |
| 20260504024417 | 4 | 162 | 0.0 | 1.6 | 0.00 | 0.00 | 0.00 | 86 | 1015.1 |
| 20260504023926 | 3 | 162 | 0.0 | 1.6 | 0.00 | 0.00 | 0.00 | 86 | 1015.1 |
| 20260504023417 | 3 | 162 | 0.0 | 1.6 | 0.00 | 0.00 | 0.00 | 86 | 1015.1 |
| 20260504022923 | 3 | 162 | 0.0 | 1.6 | 0.00 | 0.00 | 0.00 | 85 | 1015.1 |
| 20260504022434 | 3 | 162 | 0.0 | 1.6 | 0.00 | 0.00 | 0.00 | 85 | 1015.1 |
| 20260504021927 | 3 | 162 | 1.6 | 1.6 | 0.00 | 0.00 | 0.00 | 85 | 1015.1 |
| 20260504021439 | 4 | 162 | 0.0 | 0.0 | 0.00 | 0.00 | 0.00 | 85 | 1015.2 |
| 20260504020932 | 4 | 162 | 0.0 | 0.0 | 0.00 | 0.00 | 0.00 | 84 | 1015.1 |
| 20260504020425 | 4 | 162 | 0.0 | 0.0 | 0.00 | 0.00 | 0.00 | 83 | 1015.0 |
| 20260504015933 | 4 | 162 | 0.0 | 1.6 | 0.00 | 0.00 | 0.00 | 84 | 1015.0 |
| 20260504015441 | 5 | 162 | 0.0 | 1.6 | 0.00 | 0.00 | 0.00 | 83 | 1015.1 |
| 20260504014952 | 5 | 162 | 0.0 | 1.6 | 0.00 | 0.00 | 0.00 | 82 | 1015.1 |
| 20260504014423 | 5 | 162 | 0.0 | 3.2 | 0.00 | 0.00 | 0.00 | 82 | 1015.1 |
| 20260504013935 | 5 | 162 | 0.0 | 3.2 | 0.00 | 0.00 | 0.00 | 81 | 1015.1 |
| 20260504013447 | 5 | 162 | 0.0 | 3.2 | 0.00 | 0.00 | 0.00 | 81 | 1015.0 |
| 20260504012937 | 5 | 162 | 0.0 | 3.2 | 0.00 | 0.00 | 0.00 | 80 | 1014.9 |
| 20260504012426 | 5 | 163 | 0.0 | 3.2 | 0.00 | 0.00 | 0.00 | 80 | 1014.9 |
| 20260504011933 | 6 | 171 | 1.6 | 6.4 | 0.00 | 0.00 | 0.00 | 79 | 1014.9 |
| 20260504011445 | 6 | 170 | 1.6 | 6.4 | 0.00 | 0.00 | 0.00 | 79 | 1014.9 |
| 20260504010935 | 6 | 172 | 0.0 | 3.2 | 0.00 | 0.00 | 0.00 | 77 | 1014.9 |
| 20260504010425 | 6 | 169 | 0.0 | 3.2 | 0.00 | 0.00 | 0.00 | 76 | 1014.9 |
| 20260504005932 | 6 | 167 | 1.6 | 4.8 | 0.00 | 0.00 | 0.00 | 77 | 1014.9 |
| 20260504005423 | 7 | 169 | 1.6 | 4.8 | 0.00 | 0.00 | 0.00 | 75 | 1014.8 |
| 20260504004935 | 7 | 171 | 1.6 | 4.8 | 0.00 | 0.00 | 0.00 | 77 | 1014.8 |
| 20260504004427 | 7 | 170 | 1.6 | 8.0 | 0.00 | 0.00 | 0.00 | 77 | 1014.8 |
| 20260504003916 | 7 | 161 | 3.2 | 8.0 | 0.00 | 0.00 | 0.00 | 78 | 1014.8 |
| 20260504003427 | 7 | 157 | 1.6 | 6.4 | 0.00 | 0.00 | 0.00 | 75 | 1014.8 |
| 20260504002918 | 7 | 117 | 1.6 | 6.4 | 0.00 | 0.00 | 0.00 | 72 | 1014.9 |
| 20260504002429 | 7 | 194 | 3.2 | 6.4 | 0.00 | 0.00 | 0.00 | 75 | 1014.8 |
| 20260504001920 | 8 | 161 | 1.6 | 4.8 | 0.00 | 0.00 | 0.00 | 73 | 1014.9 |
| 20260504001433 | 8 | 161 | 1.6 | 4.8 | 0.00 | 0.00 | 0.00 | 73 | 1014.8 |
| 20260504000926 | 8 | 161 | 3.2 | 8.0 | 0.00 | 0.00 | 0.00 | 73 | 1014.8 |
| 20260504000440 | 8 | 164 | 1.6 | 8.0 | 0.00 | 0.00 | 0.00 | 72 | 1014.8 |
| 20260503235917 | 9 | 176 | 3.2 | 8.0 | 0.00 | 0.00 | 0.00 | 70 | 1014.8 |
| 20260503235428 | 9 | 168 | 4.8 | 8.0 | 0.00 | 0.00 | 0.00 | 71 | 1014.8 |
| 20260503234921 | 10 | 157 | 3.2 | 8.0 | 0.00 | 0.00 | 0.00 | 68 | 1014.8 |
| 20260503234433 | 10 | 225 | 1.6 | 8.0 | 0.00 | 0.00 | 0.00 | 69 | 1014.8 |
| 20260503233923 | 11 | 221 | 3.2 | 12.9 | 0.00 | 0.00 | 0.00 | 66 | 1014.8 |
| 20260503233433 | 11 | 142 | 3.2 | 12.9 | 0.00 | 0.00 | 0.00 | 62 | 1014.8 |
| 20260503232924 | 12 | 201 | 3.2 | 12.9 | 0.00 | 0.00 | 0.00 | 52 | 1014.9 |
| 20260503232416 | 12 | 223 | 1.6 | 12.9 | 0.00 | 0.00 | 0.00 | 51 | 1014.9 |
| 20260503231923 | 12 | 242 | 4.8 | 12.9 | 0.00 | 0.00 | 0.00 | 52 | 1014.9 |
| 20260503231434 | 12 | 225 | 4.8 | 11.3 | 0.00 | 0.00 | 0.00 | 41 | 1014.9 |
| 20260503230925 | 12 | 225 | 4.8 | 11.3 | 0.00 | 0.00 | 0.00 | 57 | 1014.9 |
| 20260503230416 | 12 | 185 | 4.8 | 11.3 | 0.00 | 0.00 | 0.00 | 47 | 1014.9 |
| 20260503225934 | 12 | 181 | 4.8 | 11.3 | 0.00 | 0.00 | 0.00 | 46 | 1014.9 |
| 20260503225424 | 13 | 170 | 4.8 | 11.3 | 0.00 | 0.00 | 0.00 | 46 | 1014.9 |
| 20260503224934 | 13 | 219 | 3.2 | 8.0 | 0.00 | 0.00 | 0.00 | 41 | 1015.0 |
| 20260503224424 | 13 | 170 | 3.2 | 9.7 | 0.00 | 0.00 | 0.00 | 38 | 1014.9 |
| 20260503223931 | 13 | 192 | 4.8 | 12.9 | 0.00 | 0.00 | 0.00 | 38 | 1015.0 |
| 20260503223421 | 13 | 215 | 4.8 | 14.5 | 0.00 | 0.00 | 0.00 | 37 | 1015.1 |
| 20260503222933 | 13 | 249 | 1.6 | 14.5 | 0.00 | 0.00 | 0.00 | 44 | 1015.1 |
| 20260503222422 | 13 | 323 | 8.0 | 14.5 | 0.00 | 0.00 | 0.00 | 37 | 1015.1 |
| 20260503221934 | 13 | 189 | 6.4 | 12.9 | 0.00 | 0.00 | 0.00 | 40 | 1015.2 |
| 20260503221425 | 13 | 25 | 6.4 | 14.5 | 0.00 | 0.00 | 0.00 | 40 | 1015.2 |
| 20260503220916 | 13 | 150 | 6.4 | 16.1 | 0.00 | 0.00 | 0.00 | 36 | 1015.1 |
| 20260503220426 | 13 | 300 | 6.4 | 16.1 | 0.00 | 0.00 | 0.00 | 40 | 1015.2 |
| 20260503215929 | 13 | 257 | 4.8 | 27.4 | 0.00 | 0.00 | 0.00 | 37 | 1015.2 |
| 20260503215419 | 13 | 309 | 6.4 | 27.4 | 0.00 | 0.00 | 0.00 | 38 | 1015.2 |
| 20260503214929 | 14 | 275 | 8.0 | 14.5 | 0.00 | 0.00 | 0.00 | 37 | 1015.2 |
| 20260503214441 | 14 | 193 | 4.8 | 17.7 | 0.00 | 0.00 | 0.00 | 39 | 1015.2 |
| 20260503213929 | 14 | 245 | 6.4 | 12.9 | 0.00 | 0.00 | 0.00 | 39 | 1015.2 |
| 20260503213420 | 14 | 327 | 4.8 | 22.5 | 0.00 | 0.00 | 0.00 | 45 | 1015.1 |
| 20260503212932 | 14 | 236 | 8.0 | 22.5 | 0.00 | 0.00 | 0.00 | 39 | 1015.2 |
| 20260503212424 | 14 | 248 | 8.0 | 16.1 | 0.00 | 0.00 | 0.00 | 36 | 1015.2 |
| 20260503211930 | 14 | 320 | 11.3 | 16.1 | 0.00 | 0.00 | 0.00 | 37 | 1015.0 |
| 20260503211443 | 14 | 149 | 9.7 | 17.7 | 0.00 | 0.00 | 0.00 | 38 | 1015.0 |
| 20260503210933 | 13 | 213 | 9.7 | 17.7 | 0.00 | 0.00 | 0.00 | 38 | 1015.1 |
| 20260503210425 | 14 | 272 | 6.4 | 24.1 | 0.00 | 0.00 | 0.00 | 40 | 1015.1 |
| 20260503205933 | 14 | 260 | 12.9 | 24.1 | 0.00 | 0.00 | 0.00 | 38 | 1015.2 |
| 20260503205444 | 15 | 298 | 11.3 | 24.1 | 0.00 | 0.00 | 0.00 | 36 | 1015.3 |
| 20260503204916 | 15 | 290 | 8.0 | 17.7 | 0.00 | 0.00 | 0.00 | 41 | 1015.2 |
| 20260503204428 | 15 | 183 | 8.0 | 19.3 | 0.00 | 0.00 | 0.00 | 38 | 1015.2 |
| 20260503203955 | 14 | 236 | 6.4 | 19.3 | 0.00 | 0.00 | 0.00 | 35 | 1015.3 |
| 20260503203446 | 14 | 261 | 8.0 | 24.1 | 0.00 | 0.00 | 0.00 | 37 | 1015.5 |
| 20260503202934 | 14 | 168 | 14.5 | 24.1 | 0.00 | 0.00 | 0.00 | 37 | 1015.5 |
| 20260503202445 | 14 | 155 | 6.4 | 20.9 | 0.00 | 0.00 | 0.00 | 36 | 1015.8 |
| 20260503201933 | 13 | 327 | 4.8 | 29.0 | 0.00 | 0.00 | 0.00 | 38 | 1015.7 |
| 20260503201425 | 14 | 284 | 9.7 | 29.0 | 0.00 | 0.00 | 0.00 | 36 | 1015.9 |
| 20260503200917 | 13 | 284 | 9.7 | 20.9 | 0.00 | 0.00 | 0.00 | 38 | 1015.9 |
| 20260503200422 | 14 | 325 | 9.7 | 22.5 | 0.00 | 0.00 | 0.00 | 35 | 1015.9 |
| 20260503195929 | 15 | 227 | 9.7 | 25.7 | 0.00 | 0.00 | 0.00 | 40 | 1015.9 |
| 20260503195442 | 14 | 288 | 8.0 | 29.0 | 0.00 | 0.00 | 0.00 | 37 | 1016.1 |
| 20260503194932 | 15 | 223 | 16.1 | 29.0 | 0.00 | 0.00 | 0.00 | 44 | 1016.2 |
| 20260503194422 | 15 | 176 | 14.5 | 24.1 | 0.00 | 0.00 | 0.00 | 42 | 1016.2 |
| 20260503193933 | 14 | 289 | 4.8 | 25.7 | 0.00 | 0.00 | 0.00 | 36 | 1016.1 |
| 20260503193424 | 15 | 240 | 16.1 | 25.7 | 0.00 | 0.00 | 0.00 | 41 | 1016.4 |
| 20260503192931 | 15 | 271 | 12.9 | 29.0 | 0.00 | 0.00 | 0.00 | 35 | 1016.4 |
| 20260503192420 | 15 | 212 | 12.9 | 29.0 | 0.00 | 0.00 | 0.00 | 38 | 1016.3 |
| 20260503191930 | 13 | 149 | 11.3 | 22.5 | 0.00 | 0.00 | 0.00 | 38 | 1016.3 |
| 20260503191420 | 13 | 188 | 9.7 | 20.9 | 0.00 | 0.00 | 0.00 | 43 | 1016.6 |
| 20260503190930 | 13 | 173 | 9.7 | 24.1 | 0.00 | 0.00 | 0.00 | 40 | 1016.5 |
| 20260503190422 | 13 | 12 | 8.0 | 24.1 | 0.00 | 0.00 | 0.00 | 42 | 1016.6 |
| 20260503185942 | 12 | 321 | 4.8 | 17.7 | 0.00 | 0.00 | 0.00 | 42 | 1016.7 |
| 20260503185429 | 12 | 180 | 6.4 | 19.3 | 0.00 | 0.00 | 0.00 | 38 | 1016.9 |
| 20260503184934 | 13 | 295 | 6.4 | 27.4 | 0.00 | 0.00 | 0.00 | 38 | 1017.1 |
| 20260503184425 | 13 | 263 | 11.3 | 27.4 | 0.00 | 0.00 | 0.00 | 44 | 1017.1 |
| 20260503183917 | 13 | 259 | 12.9 | 22.5 | 0.00 | 0.00 | 0.00 | 39 | 1017.1 |
| 20260503183428 | 13 | 264 | 4.8 | 24.1 | 0.00 | 0.00 | 0.00 | 38 | 1017.0 |
| 20260503182918 | 13 | 277 | 6.4 | 24.1 | 0.00 | 0.00 | 0.00 | 38 | 1017.2 |
| 20260503182428 | 12 | 291 | 11.3 | 22.5 | 0.00 | 0.00 | 0.00 | 44 | 1017.2 |
| 20260503181919 | 13 | 237 | 12.9 | 20.9 | 0.00 | 0.00 | 0.00 | 37 | 1017.2 |
| 20260503181426 | 13 | 258 | 12.9 | 24.1 | 0.00 | 0.00 | 0.00 | 42 | 1017.2 |
| 20260503180918 | 13 | 254 | 12.9 | 25.7 | 0.00 | 0.00 | 0.00 | 36 | 1017.3 |
| 20260503180424 | 13 | 300 | 16.1 | 25.7 | 0.00 | 0.00 | 0.00 | 47 | 1017.3 |
| 20260503175924 | 12 | 291 | 8.0 | 25.7 | 0.00 | 0.00 | 0.00 | 46 | 1017.3 |
| 20260503175456 | 12 | 267 | 8.0 | 27.4 | 0.00 | 0.00 | 0.00 | 38 | 1017.2 |
| 20260503174925 | 13 | 268 | 11.3 | 27.4 | 0.00 | 0.00 | 0.00 | 42 | 1017.4 |
| 20260503174457 | 13 | 306 | 12.9 | 19.3 | 0.00 | 0.00 | 0.00 | 41 | 1017.3 |
| 20260503173926 | 13 | 322 | 9.7 | 24.1 | 0.00 | 0.00 | 0.00 | 39 | 1017.5 |
| 20260503173430 | 12 | 254 | 9.7 | 27.4 | 0.00 | 0.00 | 0.00 | 38 | 1017.5 |
| 20260503172922 | 13 | 217 | 11.3 | 27.4 | 0.00 | 0.00 | 0.00 | 45 | 1017.5 |
| 20260503172431 | 12 | 294 | 12.9 | 22.5 | 0.00 | 0.00 | 0.00 | 40 | 1017.6 |
| 20260503171924 | 12 | 184 | 8.0 | 24.1 | 0.00 | 0.00 | 0.00 | 38 | 1017.8 |
| 20260503171435 | 12 | 325 | 11.3 | 27.4 | 0.00 | 0.00 | 0.00 | 44 | 1017.8 |
| 20260503170947 | 12 | 316 | 14.5 | 27.4 | 0.00 | 0.00 | 0.00 | 45 | 1018.1 |
| 20260503170416 | 12 | 286 | 6.4 | 22.5 | 0.00 | 0.00 | 0.00 | 46 | 1018.0 |
| 20260503150936 | 10 | 150 | 8.0 | 22.5 | 0.00 | 0.00 | 0.00 | 46 | 1018.8 |
| 20260503150428 | 9 | 221 | 4.8 | 22.5 | 0.00 | 0.00 | 0.00 | 43 | 1018.9 |
| 20260503130952 | 6 | 285 | 8.0 | 14.5 | 0.00 | 0.00 | 0.00 | 64 | 1019.1 |
| 20260503130442 | 6 | 259 | 6.4 | 14.5 | 0.00 | 0.00 | 0.00 | 68 | 1019.1 |
| 20260503110422 | -1 | 281 | 0.0 | 0.0 | 0.00 | 0.00 | 0.00 | 91 | 1018.3 |
| 20260503090440 | 0 | 281 | 0.0 | 0.0 | 0.00 | 0.00 | 0.00 | 92 | 1017.6 |
| 20260503081420 | 0 | 282 | 0.0 | 0.0 | 0.00 | 0.00 | 0.00 | 91 | 1017.3 |
| 20260503080931 | 0 | 282 | 0.0 | 0.0 | 0.00 | 0.00 | 0.00 | 90 | 1017.3 |
| 20260503080423 | 0 | 282 | 0.0 | 0.0 | 0.00 | 0.00 | 0.00 | 90 | 1017.3 |
| 20260503072927 | 0 | 282 | 0.0 | 0.0 | 0.00 | 0.00 | 0.00 | 88 | 1017.2 |
| 20260503072433 | 0 | 283 | 0.0 | 0.0 | 0.00 | 0.00 | 0.00 | 88 | 1017.2 |
| 20260503071923 | 0 | 283 | 0.0 | 0.0 | 0.00 | 0.00 | 0.00 | 88 | 1017.2 |
| 20260503071433 | 0 | 283 | 0.0 | 0.0 | 0.00 | 0.00 | 0.00 | 88 | 1017.2 |
| 20260503070924 | 0 | 284 | 0.0 | 0.0 | 0.00 | 0.00 | 0.00 | 88 | 1017.2 |
| 20260503070418 | 0 | 284 | 0.0 | 0.0 | 0.00 | 0.00 | 0.00 | 88 | 1017.1 |